Hourly Data Report for December 01, 2019

MUSKOKA
ONTARIO
Current Station Operator: NAVCAN

44°58'29.000" N
79°18'12.000" W
281.90 m
6115529
71532
YQA

Download Data

Hourly Data (December 2019)
Hourly Data Report for December 1, 2019
TIME
LST
Temp Definition
°C
Dew Point Definition
°C
Rel Hum Definition
%
Precip. Amount Definition
mm

Wind Dir Definition
10's deg

Wind Spd Definition
km/h
Visibility Definition
km
Stn Press Definition
kPa
Hmdx Definition


Wind Chill Definition


Weather Definition


00:00 -8.7 -11.9 78 0.0 8 11 16.1 98.22   -14 LegendNANA
01:00 -9.2 -12.5 77 0.0 10 8 16.1 98.12   -14 LegendNANA
02:00 -9.3 -12.8 76 0.0 11 11 16.1 98.12   -15 LegendNANA
03:00 -9.6 -13.1 76 0.0 9 11 16.1 98.03   -15 LegendNANA
04:00 -9.5 -13.3 74 0.0 11 11 16.1 97.92   -15 LegendNANA
05:00 -9.1 -13.4 71 0.0 10 13 16.1 97.78   -15 LegendNANA
06:00 -9.3 -13.6 71 0.0 9 11 16.1 97.64   -15 LegendNANA
07:00 -8.9 -14.0 67 0.0 8 17 16.1 97.50   -16 LegendNANA
08:00 -8.0 -14.9 58 0.0 9 21 16.1 97.46   -16 LegendNANA
09:00 -7.0 -16.0 49 0.0 10 18 16.1 97.37   -14 LegendNANA
10:00 -5.8 -16.2 44 0.0 10 15 16.1 97.33   -12 LegendNANA
11:00 -5.0 -15.1 46 0.0 9 18 16.1 97.18   -11 LegendNANA
12:00 -4.2 -15.0 43 0.0 8 15 16.1 97.06   -10 LegendNANA
13:00 -6.2 -8.6 83 0.0 8 21 0.6 96.95   -13 Moderate Snow
14:00 -6.3 -7.8 89 2.8 9 18 0.6 96.96   -13 Moderate Snow
15:00 -6.4 -7.8 90 3.2 7 17 0.4 96.88   -13 Heavy Snow
16:00 -6.3 -7.5 92 4.0 7 17 0.2 96.87   -13 Heavy Snow
17:00 -6.0 -7.3 90 3.8 7 15 1.0 96.94   -12 Snow
18:00 -5.4 -7.1 88 0.5 7 11 6.4 96.99   -10 Snow
19:00 -4.9 -6.7 87 0.0 7 8 9.7 97.02   -8 Snow
20:00 -4.8 -6.9 85 0.0 7 11 14.5 97.04   -9 LegendNANA
21:00 -5.3 -7.3 86 0.0 6 11 6.4 97.08   -10 Snow
22:00 -5.3 -7.1 87 0.0 5 9 4.8 97.13   -9 Snow
23:00 -6.1 -7.9 87 0.2 5 13 2.8 97.16   -11 Snow

Notes on Data Quality.

Legend

  • E = Estimated
  • M = Missing
  • NA = Not Available*
  • [empty] = Indicates an unobserved value
Date modified: